Chetumal, Mexico

9:09 PM on March 29, 2017 (GMT +0000)
Chetumal International

Weather History for MMCM - May, 2013

Change the Weather History Date:

Sunday, May 19, 2013

  Actual Average Record
Temperature  
Mean Temperature 88 °F -  
Max Temperature 95 °F 85 °F 95 °F (2013)
Min Temperature 81 °F 76 °F 69 °F (2014)
Cooling Degree Days 23    
Growing Degree Days 38 (Base 50)    
Moisture  
Dew Point 75 °F    
Average Humidity 67    
Maximum Humidity 75    
Minimum Humidity 45    
Precipitation  
Precipitation 0.00 in - - ()
Sea Level Pressure  
Sea Level Pressure 29.89 in    
Wind  
Wind Speed 10 mph ()    
Max Wind Speed 21 mph    
Max Gust Speed -    
Visibility 6.5 miles    
Events      
Averages and records for this station are not official NWS values.
T = Trace of Precipitation, MM = Missing Value Source: Averaged Metar Reports

Daily Weather History Graph

Daily Weather History Graph

Search for Another Location

Airport or City:

Trip Planner

Search our weather history database for the weather conditions in past years. The results will help you decide how hot, cold, wet, or windy it might be!

Date:

Astronomy

May. 19, 2013 Rise Set
Actual Time 6:18 AM CDT 7:21 PM CDT
Civil Twilight 5:54 AM CDT 7:44 PM CDT
Nautical Twilight 5:26 AM CDT 8:12 PM CDT
Astronomical Twilight 4:58 AM CDT 8:41 PM CDT
Moon 2:10 PM CDT (5/19) 1:51 AM CDT (5/19)
Length of Visible Light 13h 50m
Length of Day
13h 03m
Waxing Gibbous, 65% of the Moon is Illuminated
May 19
Waxing Gibbous
May 24
Full
May 31
Last Quarter
Jun 8
New
Jun 16
First Quarter

Hourly Weather History & Observations

Time (CDT) Temp. Heat Index Dew Point Humidity Pressure Visibility Wind Dir Wind Speed Gust Speed Precip Events Conditions
12:45 AM 83 °F - 76 °F 75% 29.93 in 5 mi East 6.7 mph - -   Partly Cloudy
6:45 AM 82 °F - 75 °F 73% 29.92 in 6 mi ESE 6.7 mph - -   Partly Cloudy
7:43 AM 82.4 °F 88.2 °F 73.4 °F 74% 29.91 in 7.0 mi East 13.8 mph - N/A   Scattered Clouds
8:43 AM 84.2 °F 90.9 °F 73.4 °F 70% 29.92 in 7.0 mi SE 20.7 mph - N/A   Scattered Clouds
9:43 AM 84.2 °F 90.9 °F 73.4 °F 70% 29.94 in 7.0 mi ESE 11.5 mph - N/A   Scattered Clouds
9:50 AM 90 °F - 74 °F 51% 29.95 in 6 mi East 6.7 mph - -   Partly Cloudy
10:42 AM 86.0 °F 95.1 °F 75.2 °F 70% 29.92 in 7.0 mi ESE 20.7 mph - N/A   Scattered Clouds
11:47 AM 86.0 °F 95.1 °F 75.2 °F 70% 29.92 in 7.0 mi ESE 18.4 mph - N/A   Scattered Clouds
12:45 PM 86.0 °F 95.1 °F 75.2 °F 70% 29.91 in 7.0 mi ESE 17.3 mph - N/A   Scattered Clouds
12:50 PM 93 °F - 74 °F 45% 29.92 in 6 mi East 6.7 mph - -   Scattered Clouds
1:42 PM 87.8 °F 99.7 °F 77.0 °F 70% 29.88 in 7.0 mi ESE 11.5 mph - N/A   Scattered Clouds
2:42 PM 87.8 °F 99.7 °F 77.0 °F 70% 29.86 in 7.0 mi ESE 11.5 mph - N/A   Scattered Clouds
3:42 PM 87.8 °F 99.7 °F 77.0 °F 70% 29.84 in 7.0 mi ESE 11.5 mph - N/A   Scattered Clouds
3:50 PM 93 °F - 74 °F 46% 29.86 in 6 mi ESE 8.9 mph - -   Scattered Clouds
4:42 PM 87.8 °F 99.7 °F 77.0 °F 70% 29.83 in 7.0 mi ESE 11.5 mph - N/A   Scattered Clouds
5:42 PM 86.0 °F 96.9 °F 77.0 °F 74% 29.83 in 7.0 mi ESE 11.5 mph - N/A   Scattered Clouds
6:42 PM 86.0 °F 96.9 °F 77.0 °F 74% 29.84 in 7.0 mi ESE 11.5 mph - N/A   Scattered Clouds
6:50 PM 86 °F - 75 °F 62% 29.87 in 6 mi East 8.9 mph - -   Scattered Clouds
9:45 PM 84 °F - 74 °F 66% 29.90 in 5 mi East 6.7 mph - -   Scattered Clouds